{"data":{"norad_id":59799,"intl_designator":"2024-093T","name":"STARLINK-31810","alt_names":[],"object_type":"PAYLOAD","status":"ACTIVE","operator":null,"country":"US","launch_date":"2024-05-18","launch_site_code":"AFETR","launch_vehicle":null,"mission":null,"orbit_class":"UNKNOWN","rcs_meters":null,"size_class":null,"mass_kg":null,"dimensions":null,"purposes":["comms"],"wikipedia_slug":null,"has_3d_model":false,"image_url":null,"decayed_at":null,"tle_current":{"epoch":"2026-05-24T23:57:55.008576Z","epoch_age_seconds":71352,"freshness":"FRESH","line1":"1 59799U 24093T   26144.99855334  .00007019  00000+0  26452-3 0  9998","line2":"2 59799  43.0009 138.1308 0000678  30.0595 330.0295 15.27557875114363","mean_motion":15.27557875,"eccentricity":6.78e-5,"inclination_deg":43.0009,"raan_deg":138.1308,"arg_perigee_deg":30.0595,"mean_anomaly_deg":330.0295,"bstar":0.00026452,"rev_number":11436,"period_min":94.268114064091,"perigee_km":482.65015413958,"apogee_km":483.58053995784,"semimajor_km":6861.2523470487,"source":"CELESTRAK","updated_at":"2026-05-25T13:38:19.083477Z"}}}